sat.trackr.live / text

‹ back to catalog

STARLINK-31543

NORAD 59402 · 2024-064E

PAYLOAD ACTIVE UNKNOWN

§ Identity

Operator
Country
US
Launch date
2024-04-05
Launch site
AFETR
Launch vehicle
Mass (kg)
RCS (m²)

Purposes: comms

External: N2YO · Heavens-Above · Gunter

§ Orbital elements

Epoch: 2026-05-24T20:47:27.608064Z

Period
94.27 min
Inclination
43.0030°
Eccentricity
0.0000988
Mean motion
15.27580136 rev/d
Perigee alt
482.4 km
Apogee alt
483.7 km
Semi-major
6,861.2 km
B*
2.3281e-5
RAAN
346.1717°
Arg perigee
284.4814°
Mean anomaly
75.5928°
Rev number
12,087

§ Raw data

STARLINK-315431 59402U 24064E   26144.86629176  .00000379  00000+0  23281-4 0  99962 59402  43.0030 346.1717 0000988 284.4814  75.5928 15.27580136120879

JSON: /api/v1/satellites/59402 · /tle

For live sub-satellite position, see the globe view (requires WebGL).

§ Visibility from observer

Set your observer location to see the next 7 days of passes ≥ 10°. The values pass through the URL so the page stays shareable.

No JS? Fill the form by hand. The geolocation button needs JavaScript.